TimeMST,TemperatureF,Dew PointF,Humidity,Sea Level PressureIn,VisibilityMPH,Wind Direction,Wind SpeedMPH,Gust SpeedMPH,PrecipitationIn,Events,Conditions,WindDirDegrees,DateUTC
12:15 AM,21.2,15.8,80,30.04,10.0,Calm,Calm,-,N/A,,Clear,0,2012-02-19 07:15:00
12:35 AM,24.8,17.6,74,30.04,10.0,Calm,Calm,-,N/A,,Clear,0,2012-02-19 07:35:00
12:55 AM,24.8,15.8,69,30.05,10.0,NNW,3.5,-,N/A,,Clear,340,2012-02-19 07:55:00
1:15 AM,21.2,15.8,80,30.03,10.0,Calm,Calm,-,N/A,,Clear,0,2012-02-19 08:15:00
1:35 AM,19.4,12.2,74,30.03,10.0,Calm,Calm,-,N/A,,Clear,0,2012-02-19 08:35:00
2:15 AM,19.4,14.0,80,30.02,10.0,Calm,Calm,-,N/A,,Clear,0,2012-02-19 09:15:00
2:35 AM,19.4,14.0,80,30.01,10.0,Calm,Calm,-,N/A,,Clear,0,2012-02-19 09:35:00
2:55 AM,17.6,12.2,79,30.01,10.0,North,3.5,-,N/A,,Clear,10,2012-02-19 09:55:00
3:35 AM,19.4,12.2,74,29.99,10.0,West,3.5,-,N/A,,Clear,270,2012-02-19 10:35:00
3:55 AM,19.4,12.2,74,29.99,10.0,WNW,3.5,-,N/A,,Clear,300,2012-02-19 10:55:00
4:15 AM,17.6,12.2,79,29.99,10.0,Calm,Calm,-,N/A,,Clear,0,2012-02-19 11:15:00
4:35 AM,17.6,12.2,79,29.99,10.0,NNE,8.1,-,N/A,,Clear,20,2012-02-19 11:35:00
4:55 AM,17.6,12.2,79,29.98,10.0,North,6.9,-,N/A,,Clear,10,2012-02-19 11:55:00
5:15 AM,17.6,10.4,73,29.98,10.0,North,6.9,-,N/A,,Clear,10,2012-02-19 12:15:00
5:35 AM,17.6,12.2,79,29.97,10.0,NNE,3.5,-,N/A,,Clear,20,2012-02-19 12:35:00
6:15 AM,15.8,10.4,79,29.98,10.0,NNW,3.5,-,N/A,,Clear,340,2012-02-19 13:15:00
6:35 AM,17.6,12.2,79,29.97,10.0,Calm,Calm,-,N/A,,Clear,0,2012-02-19 13:35:00
6:55 AM,17.6,10.4,73,29.97,10.0,ESE,5.8,-,N/A,,Clear,110,2012-02-19 13:55:00
7:15 AM,19.4,12.2,74,29.96,10.0,ESE,5.8,-,N/A,,Clear,110,2012-02-19 14:15:00
7:35 AM,23.0,15.8,74,29.96,10.0,East,4.6,-,N/A,,Clear,80,2012-02-19 14:35:00
7:55 AM,24.8,17.6,74,29.96,10.0,Calm,Calm,-,N/A,,Clear,0,2012-02-19 14:55:00
8:15 AM,28.4,19.4,69,29.95,10.0,Calm,Calm,-,N/A,,Clear,0,2012-02-19 15:15:00
8:35 AM,28.4,19.4,69,29.95,10.0,NW,4.6,-,N/A,,Clear,320,2012-02-19 15:35:00
8:55 AM,28.4,21.2,74,29.95,10.0,NW,4.6,-,N/A,,Clear,320,2012-02-19 15:55:00
9:15 AM,33.8,19.4,56,29.95,10.0,West,3.5,-,N/A,,Clear,280,2012-02-19 16:15:00
9:35 AM,35.6,19.4,52,29.95,10.0,West,11.5,-,N/A,,Clear,260,2012-02-19 16:35:00
10:15 AM,37.4,19.4,48,29.93,10.0,WSW,6.9,-,N/A,,Clear,250,2012-02-19 17:15:00
10:35 AM,37.4,19.4,48,29.92,10.0,SSW,11.5,-,N/A,,Clear,210,2012-02-19 17:35:00
10:55 AM,39.2,19.4,45,29.91,10.0,WSW,10.4,-,N/A,,Clear,240,2012-02-19 17:55:00
11:15 AM,41.0,19.4,42,29.90,10.0,WSW,15.0,-,N/A,,Clear,240,2012-02-19 18:15:00
11:35 AM,42.8,19.4,39,29.88,10.0,WSW,12.7,17.3,N/A,,Clear,240,2012-02-19 18:35:00
11:55 AM,42.8,17.6,36,29.87,10.0,WSW,12.7,-,N/A,,Clear,250,2012-02-19 18:55:00
12:15 PM,42.8,17.6,36,29.86,10.0,SW,9.2,18.4,N/A,,Clear,230,2012-02-19 19:15:00
12:35 PM,44.6,17.6,34,29.84,10.0,WSW,10.4,17.3,N/A,,Clear,250,2012-02-19 19:35:00
12:55 PM,44.6,17.6,34,29.83,10.0,WSW,10.4,17.3,N/A,,Clear,240,2012-02-19 19:55:00
1:15 PM,44.6,17.6,34,29.81,10.0,WSW,15.0,20.7,N/A,,Clear,240,2012-02-19 20:15:00
1:35 PM,42.8,17.6,36,29.80,10.0,SW,15.0,19.6,N/A,,Partly Cloudy,230,2012-02-19 20:35:00
1:55 PM,42.8,19.4,39,29.79,10.0,WSW,13.8,18.4,N/A,,Clear,250,2012-02-19 20:55:00
2:15 PM,44.6,19.4,37,29.78,10.0,SW,17.3,21.9,N/A,,Partly Cloudy,230,2012-02-19 21:15:00
2:35 PM,42.8,17.6,36,29.77,10.0,West,17.3,25.3,N/A,,Scattered Clouds,260,2012-02-19 21:35:00
2:55 PM,39.2,19.4,45,29.77,10.0,West,15.0,26.5,N/A,,Mostly Cloudy,260,2012-02-19 21:55:00
3:15 PM,39.2,21.2,49,29.75,10.0,WNW,9.2,-,N/A,,Scattered Clouds,290,2012-02-19 22:15:00
3:35 PM,37.4,23.0,56,29.75,10.0,NW,9.2,-,N/A,,Scattered Clouds,310,2012-02-19 22:35:00
3:55 PM,37.4,21.2,52,29.76,10.0,West,15.0,21.9,N/A,,Mostly Cloudy,280,2012-02-19 22:55:00
4:15 PM,32.0,26.6,80,29.77,5.0,NW,13.8,-,N/A,,Overcast,310,2012-02-19 23:15:00
4:35 PM,30.2,26.6,86,29.78,0.8,WNW,10.4,-,N/A,,Overcast,300,2012-02-19 23:35:00
5:15 PM,30.2,26.6,86,29.77,1.5,West,9.2,-,N/A,,Overcast,270,2012-02-20 00:15:00
5:35 PM,30.2,26.6,86,29.77,0.5,WSW,9.2,-,N/A,,Overcast,240,2012-02-20 00:35:00
5:55 PM,30.2,26.6,86,29.77,1.0,SW,8.1,-,N/A,,Overcast,220,2012-02-20 00:55:00
6:15 PM,28.4,24.8,86,29.78,10.0,South,8.1,-,N/A,,Mostly Cloudy,170,2012-02-20 01:15:00
6:35 PM,28.4,26.6,93,29.78,10.0,SE,8.1,-,N/A,,Overcast,130,2012-02-20 01:35:00
6:55 PM,28.4,26.6,93,29.78,10.0,ESE,8.1,-,N/A,,Overcast,120,2012-02-20 01:55:00
7:15 PM,28.4,26.6,93,29.77,10.0,ESE,8.1,-,N/A,,Overcast,120,2012-02-20 02:15:00
7:35 PM,28.4,26.6,93,29.77,10.0,NE,5.8,-,N/A,,Overcast,50,2012-02-20 02:35:00
8:15 PM,28.4,26.6,93,29.77,10.0,SSW,6.9,-,N/A,,Overcast,200,2012-02-20 03:15:00
8:35 PM,28.4,26.6,93,29.76,7.0,SW,15.0,20.7,N/A,,Overcast,230,2012-02-20 03:35:00
9:15 PM,28.4,23.0,80,29.79,10.0,WSW,12.7,18.4,N/A,,Mostly Cloudy,240,2012-02-20 04:15:00
9:35 PM,28.4,23.0,80,29.79,7.0,WSW,10.4,-,N/A,,Mostly Cloudy,240,2012-02-20 04:35:00
9:55 PM,28.4,23.0,80,29.79,10.0,WSW,10.4,-,N/A,,Overcast,240,2012-02-20 04:55:00
10:15 PM,26.6,21.2,80,29.80,10.0,SSW,8.1,-,N/A,,Mostly Cloudy,210,2012-02-20 05:15:00
10:35 PM,26.6,23.0,86,29.81,10.0,WSW,4.6,-,N/A,,Mostly Cloudy,250,2012-02-20 05:35:00
10:55 PM,24.8,21.2,86,29.80,10.0,SW,4.6,-,N/A,,Mostly Cloudy,220,2012-02-20 05:55:00
11:15 PM,24.8,21.2,86,29.80,10.0,WSW,3.5,-,N/A,,Mostly Cloudy,240,2012-02-20 06:15:00
11:35 PM,21.2,19.4,93,29.80,10.0,South,4.6,-,N/A,,Scattered Clouds,180,2012-02-20 06:35:00
11:55 PM,24.8,19.4,80,29.80,10.0,South,3.5,-,N/A,,Scattered Clouds,170,2012-02-20 06:55:00